Regional Weather Roundup
Issued by NWS Burlington, VT

Home | Current Version | Previous Version | Text Only | Print | Product List | Glossary On
Versions: 1 2 3 4 5 6 7 8 9 10 11 12 13 14 15 16 17 18 19 20 21 22 23 24 25 26 27 28 29 30 31 32 33 34 35 36 37 38 39 40 41 42 43 44 45 46 47 48 49 50
000
ASUS41 KBTV 300510
RWRBTV
VERMONT REGIONAL WEATHER ROUNDUP
NATIONAL WEATHER SERVICE BURLINGTON VT
100 AM EDT MON MAR 30 2015

NOTE: "FAIR" INDICATES FEW OR NO CLOUDS BELOW 12,000 FEET WITH NO
SIGNIFICANT WEATHER AND/OR OBSTRUCTIONS TO VISIBILITY.

* THESE REPORTS ARE NOT UNDER NWS QUALITY CONTROL AND/OR DO NOT
  REPORT WEATHER SUCH AS PRECIPITATION AND FOG.

VTZ001>019-300600-
_____VERMONT_____


CITY           SKY/WX    TMP DP  RH WIND       PRES   REMARKS
BURLINGTON     CLOUDY    36   8  31 S16G24    29.90F
MONTPELIER     CLOUDY    29  11  47 S10       29.95F WCI  20
MORRISVILLE    MOCLDY    31  12  45 S5        29.92F
ST. JOHNSBURY*   N/A     31  10  41 MISG      29.93F
LYNDONVILLE*     N/A     29   7  38 SE12      29.93F WCI  20
MIDDLEBURY*      N/A     35   7  31 S8        29.94F
RUTLAND*       MOCLDY    27  12  54 SE9       29.96F
SPRINGFIELD    PTCLDY    23  17  78 CALM      30.00F
HIGHGATE*        N/A     33  13  42 S10G16    29.89F
NEWPORT*         N/A     30  10  43 S8        29.91F
BENNINGTON     MOCLDY    30  12  47 VRB3      29.98F

_____LAKE CHAMPLAIN_____


CITY           SKY/WX    TMP DP  RH WIND       PRES   REMARKS

$$

NYZ007-026>031-035-052-083-300600-
_____NORTHERN NEW YORK_____


CITY           SKY/WX    TMP DP  RH WIND       PRES   REMARKS
PLATTSBURGH    CLOUDY    32  17  54 S5        29.88F
SARANAC LAKE   CLOUDY    31   9  39 SW15      29.79F
MASSENA        CLOUDY    36  12  37 S10       29.82F
OGDENSBURG*    CLEAR     37  16  41 SW12G18   29.80F
POTSDAM*       CLOUDY    37  16  41 SW10G21   29.80F
WATERTOWN      CLOUDY    40  15  36 SW21G30   29.85R
FT DRUM        CLOUDY    37  10  32 SW20G26   29.81F
ALBANY         CLOUDY    34   9  35 S10       30.00F
GLENS FALLS    MOCLDY    29  18  63 S5        29.97F

$$
NHZ002-005-011-300600-
_____NEW HAMPSHIRE_____


CITY           SKY/WX    TMP DP  RH WIND       PRES   REMARKS
LEBANON        PTCLDY    28  16  60 CALM      29.98F
KEENE          CLEAR     23  18  80 CALM      30.02S
MT WASHINGTON  MOCLDY    16  -8  35 W36G43      N/A  WCI  -6
PLYMOUTH         N/A     23  22  93 CALM      30.00S
WHITEFIELD     PTCLDY    22  15  75 W5        29.94F

$$

_____REGIONAL QUEBEC LOCATIONS_____


CITY           SKY/WX    TMP DP  RH WIND       PRES   REMARKS
MONTREAL       CLOUDY    34  14  44 S14       29.83F
QUEBEC CITY    PTCLDY    27  14  59 SW3       29.86F
SHERBROOKE     PTCLDY    28   9  43 S5        29.88F

_____REGIONAL ONTARIO LOCATIONS_____


CITY           SKY/WX    TMP DP  RH WIND       PRES   REMARKS
OTTAWA         CLOUDY    34  14  44 S15G23    29.77F

______KEY______
VSB  - VISIBILITY IN MILES
WCI  - WIND CHILL INDEX
HX   - HEAT INDEX
$$



USA.gov is the U.S. government's official web portal to all federal, state and local government web resources and services.